TimePST,TemperatureF,Dew PointF,Humidity,Sea Level PressureIn,VisibilityMPH,Wind Direction,Wind SpeedMPH,Gust SpeedMPH,PrecipitationIn,Events,Conditions,WindDirDegrees,DateUTC
12:07 AM,21.2,17.6,86,29.62,1.8,Calm,Calm,-,0.00,Snow,Light Snow,0,2013-02-20 08:07:00
12:21 AM,21.2,17.6,86,29.63,0.8,Calm,Calm,-,0.01,Snow,Light Snow,0,2013-02-20 08:21:00
12:43 AM,23.0,17.6,80,29.64,2.0,Calm,Calm,-,0.01,Snow,Light Snow,0,2013-02-20 08:43:00
12:48 AM,23.0,17.6,80,29.64,3.0,Calm,Calm,-,0.01,Snow,Light Snow,0,2013-02-20 08:48:00
12:53 AM,23.0,19.0,85,29.67,4.0,Calm,Calm,-,0.01,Snow,Light Snow,0,2013-02-20 08:53:00
1:00 AM,23.0,19.4,86,29.65,7.0,Calm,Calm,-,0.00,,Overcast,0,2013-02-20 09:00:00
1:13 AM,21.2,17.6,86,29.65,5.0,Calm,Calm,-,0.00,Snow,Light Snow,0,2013-02-20 09:13:00
1:25 AM,23.0,17.6,80,29.66,3.0,Calm,Calm,-,0.00,Snow,Light Snow,0,2013-02-20 09:25:00
1:29 AM,21.2,17.6,86,29.66,1.8,Calm,Calm,-,0.00,Snow,Light Snow,0,2013-02-20 09:29:00
1:53 AM,25.0,19.9,81,29.70,3.0,North,5.8,-,0.00,Snow,Light Snow,10,2013-02-20 09:53:00
1:56 AM,24.8,19.4,80,29.67,5.0,NNE,9.2,-,0.00,Snow,Light Snow,30,2013-02-20 09:56:00
2:53 AM,25.0,17.1,72,29.73,10.0,Variable,4.6,-,0.00,,Overcast,0,2013-02-20 10:53:00
4:53 AM,14.0,10.0,84,29.83,10.0,Calm,Calm,-,N/A,,Partly Cloudy,0,2013-02-20 12:53:00
5:53 AM,23.0,14.0,68,29.82,10.0,NNE,9.2,-,N/A,,Partly Cloudy,30,2013-02-20 13:53:00
6:53 AM,12.9,8.1,81,29.91,10.0,Calm,Calm,-,N/A,,Clear,0,2013-02-20 14:53:00
8:53 AM,26.1,12.9,58,29.91,10.0,NNE,6.9,-,N/A,,Clear,30,2013-02-20 16:53:00
9:53 AM,28.9,12.0,49,29.91,10.0,North,10.4,18.4,N/A,,Clear,10,2013-02-20 17:53:00
10:53 AM,30.9,9.0,40,29.91,10.0,NE,10.4,-,N/A,,Clear,40,2013-02-20 18:53:00
11:53 AM,33.1,8.1,35,29.88,10.0,NNE,10.4,-,N/A,,Clear,20,2013-02-20 19:53:00
12:53 PM,34.0,6.1,31,29.86,10.0,NNE,9.2,19.6,0.01,,Clear,20,2013-02-20 20:53:00
1:53 PM,36.0,10.0,34,29.83,10.0,Calm,Calm,-,N/A,,Clear,0,2013-02-20 21:53:00
2:53 PM,35.1,10.0,35,29.84,10.0,NE,8.1,-,N/A,,Clear,40,2013-02-20 22:53:00
3:53 PM,35.1,9.0,34,29.87,10.0,NE,5.8,-,N/A,,Clear,40,2013-02-20 23:53:00
5:53 PM,28.0,12.9,53,29.91,5.0,Calm,Calm,-,N/A,,Haze,0,2013-02-21 01:53:00
6:53 PM,27.0,12.0,53,29.98,7.0,South,3.5,-,N/A,,Partly Cloudy,180,2013-02-21 02:53:00
7:53 PM,25.0,14.0,63,30.01,9.0,Calm,Calm,-,N/A,,Clear,0,2013-02-21 03:53:00
8:53 PM,23.0,15.1,72,29.95,10.0,Calm,Calm,-,N/A,,Clear,0,2013-02-21 04:53:00
9:53 PM,21.9,15.1,75,29.95,10.0,Calm,Calm,-,N/A,,Clear,0,2013-02-21 05:53:00
11:53 PM,19.0,12.9,77,29.93,10.0,Calm,Calm,-,N/A,,Clear,0,2013-02-21 07:53:00